Date String (YYYY-MM-DD hh:mm:ss) UTC,Instrument flags,Ambient pressure (hPa),Sample flow (lpm),Bypass flow (lpm),Sample temperature (°C),Ambient temperature (°C),ASC tube jacket temperature (°C),LED temperature (°C),Box temperature (°C),Sample RH (%),Span deviation,Mass concentration (μg/m³),Mass concentration (μg/m³),Mass concentration (μg/m³)
DateTimeUTC,F1_M11,P_M11,Q1_M11,Q2_M11,T1_M11,T2_M11,T3_M11,T4_M11,T5_M11,U1_M11,ZSPAN_M11,X0_M11,X2_M11,X1_M11
2021-12-30 08:00:00,,0813.1,4.99,0.00,22.7,22.1,00.0,31.6,24.3,06.5,0000.0,0012.07,0004.17,0002.62
2021-12-30 08:01:00,,0813.1,5.00,0.00,22.6,22.0,00.0,31.6,24.2,06.5,0000.0,0012.58,0004.19,0002.64
2021-12-30 08:02:00,,0813.1,5.00,0.00,22.6,21.9,00.0,31.6,24.2,06.6,0000.0,0012.64,0004.21,0002.67
2021-12-30 08:03:00,,0813.1,5.00,0.00,22.6,21.8,00.0,31.6,24.1,06.6,0000.0,0012.87,0004.16,0002.67
2021-12-30 08:04:00,,0813.1,5.01,0.00,22.5,21.7,00.0,31.6,24.1,06.6,0000.0,0013.80,0004.15,0002.68
2021-12-30 08:05:00,,0812.9,4.99,0.00,22.5,21.7,00.0,31.6,24.1,06.6,0000.0,0014.75,0004.16,0002.68
2021-12-30 08:06:00,,0813.0,5.01,0.00,22.5,21.6,00.0,31.6,24.0,06.6,0000.0,0015.37,0004.24,0002.68
2021-12-30 08:07:00,,0813.3,4.99,0.00,22.4,21.6,00.0,31.5,23.9,06.6,0000.0,0016.42,0004.35,0002.67
2021-12-30 08:08:00,,0813.1,4.99,0.00,22.4,21.8,00.0,31.5,24.0,06.6,0000.0,0016.51,0004.33,0002.66
2021-12-30 08:09:00,,0813.0,5.00,0.00,22.5,22.5,00.0,31.6,24.3,06.6,0000.0,0016.94,0004.32,0002.65
2021-12-30 08:10:00,,0813.0,5.00,0.00,22.7,23.2,00.0,31.6,24.5,06.5,0000.0,0017.83,0004.26,0002.62
2021-12-30 08:11:00,,0813.1,5.00,0.00,22.7,23.2,00.0,31.6,24.6,06.4,0000.0,0017.13,0004.21,0002.59
2021-12-30 08:12:00,,0813.0,5.00,0.00,22.8,22.9,00.0,31.6,24.6,06.4,0000.0,0016.37,0004.16,0002.55
2021-12-30 08:13:00,,0812.9,5.00,0.00,22.7,22.7,00.0,31.6,24.5,06.4,0000.0,0016.76,0004.06,0002.51
2021-12-30 08:14:00,,0812.9,4.99,0.00,22.7,22.5,00.0,31.6,24.4,06.4,0000.0,0017.44,0004.03,0002.49
2021-12-30 08:15:00,,0812.9,5.02,0.00,22.7,22.3,00.0,31.6,24.3,06.4,0000.0,0017.06,0003.99,0002.48
2021-12-30 08:16:00,,0812.9,4.99,0.00,22.6,22.2,00.0,31.6,24.2,06.5,0000.0,0015.81,0003.94,0002.46
2021-12-30 08:17:00,,0812.8,5.00,0.00,22.6,22.0,00.0,31.6,24.2,06.6,0000.0,0015.17,0003.84,0002.44
2021-12-30 08:18:00,,0812.8,5.00,0.00,22.6,21.9,00.0,31.6,24.1,06.8,0000.0,0013.74,0003.72,0002.41
2021-12-30 08:19:00,,0812.8,5.00,0.00,22.6,21.9,00.0,31.6,24.1,07.0,0000.0,0013.57,0003.65,0002.36
2021-12-30 08:20:00,,0812.8,5.00,0.00,22.5,21.8,00.0,31.6,24.1,07.0,0000.0,0013.31,0003.63,0002.34
2021-12-30 08:21:00,,0812.8,5.01,0.00,22.5,21.7,00.0,31.6,24.1,07.0,0000.0,0012.66,0003.63,0002.32
2021-12-30 08:22:00,,0812.8,4.99,0.00,22.5,21.7,00.0,31.6,24.1,07.0,0000.0,0012.41,0003.59,0002.30
2021-12-30 08:23:00,,0812.8,5.01,0.00,22.5,21.6,00.0,31.5,24.0,06.9,0000.0,0012.99,0003.58,0002.28
2021-12-30 08:24:00,,0812.8,5.01,0.00,22.4,21.6,00.0,31.5,24.0,06.7,0000.0,0013.50,0003.58,0002.27
2021-12-30 08:25:00,,0812.8,5.00,0.00,22.5,22.2,00.0,31.5,24.2,07.0,0000.0,0012.66,0003.61,0002.25
2021-12-30 08:26:00,,0812.8,4.99,0.00,22.6,22.9,00.0,31.6,24.4,07.2,0000.0,0012.08,0003.61,0002.21
2021-12-30 08:27:00,,0812.8,5.00,0.00,22.7,23.3,00.0,31.6,24.6,07.1,0000.0,0012.12,0003.64,0002.19
2021-12-30 08:28:00,,0812.7,5.00,0.00,22.8,23.1,00.0,31.6,24.6,07.0,0000.0,0012.19,0003.61,0002.18
2021-12-30 08:29:00,,0812.8,5.00,0.00,22.8,22.9,00.0,31.6,24.6,06.9,0000.0,0012.38,0003.59,0002.18
2021-12-30 08:30:00,,0812.9,5.00,0.00,22.8,22.7,00.0,31.6,24.5,07.0,0000.0,0012.61,0003.62,0002.18
2021-12-30 08:31:00,,0812.9,5.01,0.00,22.7,22.5,00.0,31.6,24.4,07.1,0000.0,0012.00,0003.63,0002.16
2021-12-30 08:32:00,,0812.8,5.00,0.00,22.7,22.3,00.0,31.6,24.3,07.0,0000.0,0011.34,0003.58,0002.14
2021-12-30 08:33:00,,0812.8,4.99,0.00,22.7,22.1,00.0,31.6,24.3,06.9,0000.0,0011.40,0003.61,0002.15
2021-12-30 08:34:00,,0812.8,4.99,0.00,22.6,22.0,00.0,31.6,24.2,07.1,0000.0,0010.99,0003.60,0002.14
2021-12-30 08:35:00,,0812.7,5.01,0.00,22.6,22.0,00.0,31.6,24.2,07.3,0000.0,0010.21,0003.57,0002.09
2021-12-30 08:36:00,,0812.8,5.00,0.00,22.6,21.9,00.0,31.6,24.2,07.2,0000.0,0010.06,0003.52,0002.08
2021-12-30 08:37:00,,0812.8,5.00,0.00,22.5,21.8,00.0,31.6,24.2,07.3,0000.0,0011.92,0003.51,0002.08
2021-12-30 08:38:00,,0812.8,5.01,0.00,22.5,21.7,00.0,31.6,24.1,07.5,0000.0,0011.87,0003.49,0002.08
2021-12-30 08:39:00,,0812.8,5.00,0.00,22.5,21.7,00.0,31.6,24.0,07.6,0000.0,0011.66,0003.51,0002.04
2021-12-30 08:40:00,,0812.9,5.00,0.00,22.4,21.6,00.0,31.5,24.0,07.7,0000.0,0011.92,0003.47,0002.00
2021-12-30 08:41:00,,0812.9,5.01,0.00,22.4,21.6,00.0,31.5,23.9,07.7,0000.0,0012.33,0003.43,0001.96
2021-12-30 08:42:00,,0812.9,4.99,0.00,22.3,21.5,00.0,31.5,23.9,07.7,0000.0,0012.44,0003.39,0001.94
2021-12-30 08:43:00,,0812.9,5.01,0.00,22.4,22.0,00.0,31.5,24.1,07.7,0000.0,0012.60,0003.33,0001.91
2021-12-30 08:44:00,,0812.9,5.00,0.00,22.5,22.8,00.0,31.5,24.3,07.6,0000.0,0012.77,0003.31,0001.88
2021-12-30 08:45:00,,0813.1,4.99,0.00,22.7,23.4,00.0,31.6,24.6,07.2,0000.0,0012.61,0003.32,0001.86
2021-12-30 08:46:00,,0813.0,4.99,0.00,22.7,23.1,00.0,31.6,24.6,06.8,0000.0,0013.56,0003.38,0001.90
2021-12-30 08:47:00,,0813.1,4.99,0.00,22.7,22.8,00.0,31.6,24.5,06.6,0000.0,0014.01,0003.44,0001.94
2021-12-30 08:48:00,,0813.0,5.01,0.00,22.7,22.6,00.0,31.6,24.4,06.6,0000.0,0012.39,0003.49,0002.00
2021-12-30 08:49:00,,0813.0,5.00,0.00,22.6,22.4,00.0,31.6,24.3,06.6,0000.0,0012.59,0003.48,0002.04
2021-12-30 08:50:00,,0813.1,4.98,0.00,22.6,22.3,00.0,31.6,24.3,06.6,0000.0,0012.74,0003.55,0002.07
2021-12-30 08:51:00,,0813.2,5.00,0.00,22.6,22.1,00.0,31.6,24.2,06.6,0000.0,0012.38,0003.60,0002.13
2021-12-30 08:52:00,,0813.1,5.01,0.00,22.6,22.0,00.0,31.6,24.2,06.6,0000.0,0012.21,0003.69,0002.18
2021-12-30 08:53:00,,0813.1,5.00,0.00,22.5,21.9,00.0,31.6,24.2,06.6,0000.0,0012.14,0003.75,0002.24
2021-12-30 08:54:00,,0813.5,5.00,0.00,22.5,21.9,00.0,31.5,24.1,06.6,0000.0,0012.76,0003.84,0002.30
2021-12-30 08:55:00,,0813.1,5.01,0.00,22.5,21.8,00.0,31.5,24.1,06.6,0000.0,0013.07,0003.91,0002.36
2021-12-30 08:56:00,,0813.1,4.98,0.00,22.5,21.7,00.0,31.5,24.1,06.6,0000.0,0013.42,0003.93,0002.40
2021-12-30 08:57:00,,0813.2,5.00,0.00,22.4,21.7,00.0,31.5,24.1,06.6,0000.0,0013.17,0003.94,0002.40
2021-12-30 08:58:00,,0813.0,5.01,0.00,22.4,21.6,00.0,31.5,24.0,06.6,0000.0,0012.38,0003.91,0002.39
2021-12-30 08:59:00,,0813.3,4.99,0.00,22.4,21.5,00.0,31.5,24.0,06.6,0000.0,0012.36,0003.86,0002.35
